Las Cruces, NM

7:20 PM MST on January 18, 2017 (GMT -0700)
Las Cruces International

Weather History for KLRU - October, 2013

Change the Weather History Date:

Thursday, October 3, 2013

  Actual Average Record
Temperature  
Mean Temperature 67 °F -  
Max Temperature 83 °F 79 °F 92 °F (2012)
Min Temperature 51 °F 56 °F 48 °F (2008)
Cooling Degree Days 2    
Growing Degree Days 17 (Base 50)    
Moisture  
Dew Point 32 °F    
Average Humidity 29    
Maximum Humidity 49    
Minimum Humidity 11    
Precipitation  
Precipitation 0.00 in - - ()
Sea Level Pressure  
Sea Level Pressure 29.97 in    
Wind  
Wind Speed 8 mph (West)    
Max Wind Speed 21 mph    
Max Gust Speed 29 mph    
Visibility 10 miles    
Events      
Averages and records for this station are not official NWS values.
T = Trace of Precipitation, MM = Missing Value Source: NWS Daily Summary

Daily Weather History Graph

Daily Weather History Graph

Search for Another Location

Airport or City:

Trip Planner

Search our weather history database for the weather conditions in past years. The results will help you decide how hot, cold, wet, or windy it might be!

Date:

Astronomy

Oct. 03, 2013 Rise Set
Actual Time 7:03 AM MDT 6:49 PM MDT
Civil Twilight 6:38 AM MDT 7:13 PM MDT
Nautical Twilight 6:10 AM MDT 7:42 PM MDT
Astronomical Twilight 5:41 AM MDT 8:10 PM MDT
Moon 5:42 AM MDT (10/3) 5:58 PM MDT (10/3)
Length of Visible Light 12h 35m
Length of Day
11h 46m
Waning Crescent, 2% of the Moon is Illuminated
Oct 3
Waning Crescent
Oct 4
New
Oct 11
First Quarter
Oct 18
Full
Oct 26
Last Quarter

Hourly Weather History & Observations

Time (MDT) Temp. Dew Point Humidity Pressure Visibility Wind Dir Wind Speed Gust Speed Precip Events Conditions
12:15 AM 61.7 °F 31.3 °F 32% 30.00 in 10.0 mi WNW 6.9 mph - N/A   Clear
12:35 AM 59.7 °F 31.6 °F 35% 30.00 in 10.0 mi SW 4.6 mph - N/A   Clear
12:55 AM 59.0 °F 32.0 °F 36% 30.00 in 10.0 mi SW 5.8 mph - N/A   Clear
1:15 AM 59.0 °F 32.0 °F 36% 30.00 in 10.0 mi SW 8.1 mph - N/A   Clear
1:35 AM 58.8 °F 32.0 °F 36% 30.01 in 10.0 mi WSW 8.1 mph - N/A   Clear
1:55 AM 55.9 °F 32.5 °F 41% 30.01 in 10.0 mi WSW 5.8 mph - N/A   Clear
2:15 AM 56.3 °F 32.4 °F 40% 30.01 in 10.0 mi WSW 5.8 mph - N/A   Clear
2:35 AM 55.6 °F 32.4 °F 41% 30.00 in 10.0 mi Calm Calm - N/A   Clear
2:55 AM 54.0 °F 32.2 °F 44% 30.00 in 10.0 mi West 4.6 mph - N/A   Clear
3:15 AM 53.6 °F 32.4 °F 44% 30.00 in 10.0 mi WNW 3.5 mph - N/A   Clear
3:35 AM 55.2 °F 32.4 °F 42% 29.99 in 10.0 mi West 4.6 mph - N/A   Clear
3:55 AM 52.9 °F 32.4 °F 46% 29.99 in 10.0 mi WNW 4.6 mph - N/A   Clear
4:15 AM 52.7 °F 32.2 °F 46% 29.99 in 10.0 mi WNW 4.6 mph - N/A   Clear
4:35 AM 51.8 °F 32.4 °F 48% 29.99 in 10.0 mi WNW 6.9 mph - N/A   Clear
4:55 AM 52.7 °F 32.9 °F 47% 29.98 in 10.0 mi WNW 6.9 mph - N/A   Clear
5:15 AM 53.6 °F 33.8 °F 47% 29.98 in 10.0 mi WNW 6.9 mph - N/A   Clear
5:35 AM 54.7 °F 33.4 °F 45% 29.98 in 10.0 mi WNW 8.1 mph - N/A   Clear
5:55 AM 52.7 °F 33.6 °F 48% 29.98 in 10.0 mi WNW 6.9 mph - N/A   Clear
6:15 AM 52.7 °F 33.8 °F 49% 29.98 in 10.0 mi West 8.1 mph - N/A   Clear
6:35 AM 53.6 °F 33.8 °F 47% 29.99 in 10.0 mi West 5.8 mph - N/A   Clear
6:55 AM 52.5 °F 33.8 °F 49% 29.99 in 10.0 mi West 6.9 mph - N/A   Clear
7:15 AM 52.5 °F 34.0 °F 49% 29.99 in 10.0 mi WNW 4.6 mph - N/A   Clear
7:35 AM 54.0 °F 34.9 °F 49% 30.00 in 10.0 mi West 4.6 mph - N/A   Clear
7:55 AM 58.1 °F 34.9 °F 42% 30.00 in 10.0 mi West 6.9 mph - N/A   Clear
8:15 AM 61.2 °F 35.6 °F 39% 30.01 in 10.0 mi West 6.9 mph - N/A   Clear
8:35 AM 63.9 °F 35.6 °F 35% 30.01 in 10.0 mi WNW 6.9 mph - N/A   Clear
8:55 AM 66.4 °F 35.4 °F 32% 30.02 in 10.0 mi West 12.7 mph - N/A   Clear
9:15 AM 68.0 °F 35.6 °F 30% 30.03 in 10.0 mi West 11.5 mph - N/A   Clear
9:35 AM 69.3 °F 35.8 °F 29% 30.03 in 10.0 mi WSW 8.1 mph - N/A   Clear
9:55 AM 70.2 °F 36.3 °F 29% 30.04 in 10.0 mi WSW 8.1 mph - N/A   Clear
10:15 AM 71.8 °F 36.7 °F 28% 30.04 in 10.0 mi West 8.1 mph - N/A   Clear
10:35 AM 73.8 °F 36.7 °F 26% 30.04 in 10.0 mi WSW 11.5 mph - N/A   Clear
10:55 AM 75.2 °F 36.3 °F 24% 30.03 in 10.0 mi West 15.0 mph - N/A   Clear
11:15 AM 75.6 °F 36.9 °F 25% 30.03 in 10.0 mi West 13.8 mph - N/A   Clear
11:35 AM 76.3 °F 36.9 °F 24% 30.03 in 10.0 mi WSW 13.8 mph 21.9 mph N/A   Clear
11:55 AM 77.5 °F 36.7 °F 23% 30.02 in 10.0 mi West 12.7 mph 21.9 mph N/A   Clear
12:15 PM 77.9 °F 35.4 °F 21% 30.02 in 10.0 mi WSW 16.1 mph - N/A   Clear
12:35 PM 78.3 °F 35.1 °F 21% 30.01 in 10.0 mi WSW 17.3 mph - N/A   Clear
12:55 PM 79.0 °F 34.9 °F 20% 30.00 in 10.0 mi West 10.4 mph 20.7 mph N/A   Clear
1:15 PM 80.4 °F 32.2 °F 17% 29.99 in 10.0 mi WSW 16.1 mph 27.6 mph N/A   Clear
1:35 PM 81.1 °F 31.5 °F 17% 29.98 in 10.0 mi WSW 12.7 mph 19.6 mph N/A   Clear
1:55 PM 80.8 °F 32.0 °F 17% 29.96 in 10.0 mi WSW 12.7 mph 21.9 mph N/A   Clear
2:15 PM 81.7 °F 31.3 °F 16% 29.95 in 10.0 mi SW 15.0 mph 24.2 mph N/A   Clear
2:35 PM 82.4 °F 29.5 °F 15% 29.95 in 10.0 mi West 16.1 mph 25.3 mph N/A   Clear
2:55 PM 82.6 °F 28.9 °F 14% 29.94 in 10.0 mi WSW 13.8 mph 24.2 mph N/A   Clear
3:15 PM 83.7 °F 28.9 °F 14% 29.93 in 10.0 mi West 13.8 mph 21.9 mph N/A   Clear
3:35 PM 83.5 °F 24.3 °F 11% 29.92 in 10.0 mi WSW 15.0 mph 20.7 mph N/A   Clear
3:55 PM 83.3 °F 25.9 °F 12% 29.92 in 10.0 mi WSW 20.7 mph 26.5 mph N/A   Clear
4:15 PM 83.3 °F 27.0 °F 13% 29.91 in 10.0 mi West 17.3 mph 28.8 mph N/A   Clear
4:35 PM 83.1 °F 27.3 °F 13% 29.91 in 10.0 mi West 17.3 mph 24.2 mph N/A   Clear
4:55 PM 82.8 °F 28.2 °F 14% 29.90 in 10.0 mi West 16.1 mph 19.6 mph N/A   Clear
5:15 PM 82.4 °F 28.2 °F 14% 29.90 in 10.0 mi WSW 12.7 mph 24.2 mph N/A   Clear
5:35 PM 82.2 °F 28.6 °F 14% 29.90 in 10.0 mi West 13.8 mph 23.0 mph N/A   Clear
5:55 PM 81.5 °F 28.2 °F 14% 29.90 in 10.0 mi West 15.0 mph 21.9 mph N/A   Clear
6:15 PM 80.2 °F 28.0 °F 15% 29.90 in 10.0 mi West 13.8 mph - N/A   Clear
6:35 PM 78.6 °F 27.5 °F 15% 29.90 in 10.0 mi West 9.2 mph - N/A   Clear
6:55 PM 75.7 °F 28.0 °F 17% 29.90 in 10.0 mi West 8.1 mph - N/A   Clear
7:15 PM 71.2 °F 29.3 °F 21% 29.90 in 10.0 mi West 8.1 mph - N/A   Clear
7:35 PM 70.5 °F 29.7 °F 22% 29.90 in 10.0 mi WSW 8.1 mph - N/A   Clear
7:55 PM 70.5 °F 29.8 °F 22% 29.90 in 10.0 mi WSW 6.9 mph - N/A   Clear
8:15 PM 68.7 °F 30.2 °F 24% 29.90 in 10.0 mi SW 4.6 mph - N/A   Clear
8:35 PM 67.3 °F 30.4 °F 25% 29.91 in 10.0 mi WSW 5.8 mph - N/A   Clear
8:55 PM 64.2 °F 30.9 °F 29% 29.91 in 10.0 mi SW 4.6 mph - N/A   Clear
9:15 PM 66.4 °F 30.0 °F 26% 29.91 in 10.0 mi WSW 8.1 mph - N/A   Clear
9:35 PM 66.9 °F 30.2 °F 25% 29.91 in 10.0 mi WSW 9.2 mph - N/A   Clear
10:35 PM 69.1 °F 31.8 °F 25% 29.92 in 10.0 mi WSW 10.4 mph - N/A   Clear
10:55 PM 68.4 °F 32.2 °F 26% 29.93 in 10.0 mi WSW 10.4 mph - N/A   Clear
11:15 PM 67.5 °F 32.0 °F 27% 29.93 in 10.0 mi WSW 9.2 mph - N/A   Clear
11:35 PM 67.3 °F 32.0 °F 27% 29.93 in 10.0 mi SW 10.4 mph - N/A   Clear
11:55 PM 63.7 °F 32.0 °F 31% 29.93 in 10.0 mi West 9.2 mph - N/A   Clear